Tracking 17154 objects as of 1-August-2015
HD Live streaming from Space Station

COSMOS 1478

Track COSMOS 1478 now!
10-day predictions
COSMOS 1478 is classified as:


NORAD ID: 14176
Int'l Code: 1983-069F
Perigee: 1,469.5 km
Apogee: 1,488.8 km
Inclination: 74.0 °
Period: 115.4 minutes
Semi major axis: 7850 km
RCS: 0.7085 m2 (medium)
Launch date: July 6, 1983
Source: Commonwealth of Independent States (former USSR) (CIS)
Your satellite tracking list
Your tracking list is empty





NASA's NSSDC Master Catalog

Two Line Element Set (TLE):
1 14176U 83069F   15212.54965661  .00000020  00000-0  23834-3 0  9993
2 14176 074.0246 264.1590 0012267 355.8315 156.8813 12.48209256461494

Source of the keplerian elements: AFSPC

N2YO: 209